Location: R�o Medio
(42.4667°N, 3.0167°W)
Time: 10:19:43
(UTC+00:00)

ATLAS 3B R/B - Pass Details

Date: 27 February 2020
Orbit: 1029 x 1166 km, 63.8° (Epoch: 12 March)

Event Time Altitude Azimuth Distance (km) Brightness Sun altitude
Rises 21:16:12 0° 326° (NNW) 3,806 6.3 -36.4°
Reaches altitude 10° 21:18:53 10° 331° (NNW) 2,862 5.5 -36.9°
Enters shadow 21:22:45 35° 350° (N) 1,654 3.8 -37.5°
